Location: ??????
(56.0120°N, 39.1740°E)
Time: 05:28:22
(UTC+00:00)

Cosmos 2061 Rocket - Pass Details

Date: 14 April 2026
Orbit: 965 x 1012 km, 82.9° (Epoch: 10 May)

Event Time Altitude Azimuth Distance (km) Brightness Sun altitude
Exits shadow 22:14:38 48° 216° (SW) 1,248 4.1 -23.5°
Maximum altitude 22:16:25 72° 284° (WNW) 1,018 4.0 -23.4°
Drops below altitude 10° 22:22:38 10° 9° (N) 2,719 7.4 -23.2°
Sets 22:25:10 0° 12° (NNE) 3,672 8.5 -23.1°
